AirNav   Pilot Hours Calculator
 
 871 users online  

4G3 Miller Airport
Alliance, Ohio, USA

GOING TO ALLIANCE?


FAA INFORMATION EFFECTIVE 28 MARCH 2019

Location

FAA Identifier: 4G3
Lat/Long: 40-58-54.3000N / 081-02-31.7000W
40-58.905000N / 081-02.528333W
40.9817500 / -81.0421389
(estimated)
Elevation: 1071.1 ft. / 326.5 m (surveyed)
Variation: 04W (1965)
From city: 5 miles NE of ALLIANCE, OH
Time zone: UTC -4 (UTC -5 during Standard Time)
Zip code: 44449

Airport Operations

Airport use: CLOSED INDEFINITELY
Activation date: 01/1938
Control tower: no
ARTCC: CLEVELAND CENTER
FSS: CLEVELAND FLIGHT SERVICE STATION
NOTAMs facility: CLE (NOTAM-D service available)
Attendance: UNATNDD
AIRPORT UNATTENDED: CONTACT APT MGR 48-HOURS PRIOR TO VERIFY FIELD CONDITIONS
Wind indicator: yes
Segmented circle: no
Beacon: white-green (lighted land airport)

Airport Communications

CTAF/UNICOM: 122.8
AKRON-CANTON APPROACH: 125.5 [0600-0000]
AKRON-CANTON DEPARTURE: 125.5 [0600-0000]
WX AWOS-3 at POV (17 nm NW): 118.675 (330-298-9353)
WX ASOS at CAK (19 nm W): PHONE 330-493-5260
WX ASOS at AKR (20 nm W): 126.825 (330-724-4237)
  • APCH/DEP SERVICE PROVIDED BY CLEVELAND ARTCC (ZOB) ON FREQS 120.6/298.95 (CHARDON RCAG) OR CALL CLEVELAND ARTCC (ZOB) 440-774-0485 WHEN AKRON-CANTON APCH CTL CLSD.

Nearby radio navigation aids

VOR radial/distance  VOR name  Freq  Var
ACOr140/10.5AKRON VOR/DME114.4004W
BSVr055/22.9BRIGGS VOR/DME112.4004W
YNGr223/26.7YOUNGSTOWN VORTAC109.0005W
CXRr175/32.6CHARDON VOR/DME112.7005W
EWCr292/38.8ELLWOOD CITY VOR/DME115.8008W

 
NDB name  Hdg/Dist  Freq  Var  ID
CASTLE274/28.527209WUCP ..- -.-. .--.

Airport Services

Parking: hangars and tiedowns
Bottled oxygen: NONE
Bulk oxygen: NONE

Runway Information

Runway 9/27

Dimensions: 2912 x 50 ft. / 888 x 15 m
Surface: asphalt, in fair condition
Weight bearing capacity: 
Single wheel: 9.0
RUNWAY 9  RUNWAY 27
Latitude: 40-58.910400N40-58.898593N
Longitude: 081-02.844973W081-02.212330W
Elevation: 1056.4 ft.1067.1 ft.
Gradient: 0.5%0.5%
Traffic pattern: leftleft
Runway heading: 095 magnetic, 091 true275 magnetic, 271 true
Markings: numbers only, in fair conditionnumbers only, in fair condition
Runway end identifier lights: yesyes
Touchdown point: yes, no lightsyes, no lights
Obstructions: 60 ft. trees, 400 ft. from runway, 60 ft. right of centerline, 4:1 slope to clear
RWY 09: +8FT CROPS 60FT FM THLD RWY 09 125FT L/C/R & +35FT TREES 55FT FM THLD RWY 09 125FT L
75 ft. trees, 945 ft. from runway, 135 ft. left of centerline, 9:1 slope to clear
RWY 27: +15-TO-20FT TREES 145FT FM THLD RWY 27 60-TO-100FT L/R, & +5-TO-15FT BRUSH 145FT FM THLD RWY 27 125FT L/C/R

Airport Ownership and Management from official FAA records

Ownership: Privately-owned
Owner: GROVER MATTHEWS
1286 ADAMS STREET
FAIRBORN, OH 45324
Phone 270-863-1799
Manager: GROVER MATTHEWS
1286 ADAMS STREET
FAIRBORN, OH 45324
Phone 270-863-1799

Airport Operational Statistics

Aircraft based on the field: 2
Single engine airplanes: 2
    
Aircraft operations: avg 29/month *
71% local general aviation
29% transient general aviation
* for 12-month period ending 15 July 2017

Additional Remarks

DAYTIME OPERATIONS ONLY
APCH/DEP SERVICE PROVIDED BY CLEVELAND ARTCC (ZOB) ON FREQS 120.6/298.95 (CHARDON RCAG) OR CALL CLEVELAND ARTCC (ZOB) 440-774-0485 WHEN AKRON-CANTON APCH CTL CLSD.
DEER, BIRDS & OTHER WILDLIFE ON & INVOF AIRPORT
(ARPT STATUS) ARPT CLSD INDEFLY.

Instrument Procedures

There are no published instrument procedures at 4G3.

Some nearby airports with instrument procedures:

3G6 - Tri-City Airport (5 nm SE)
38D - Salem Airpark Inc (8 nm E)
4G4 - Youngstown Elser Metro Airport (17 nm E)
KPOV - Portage County Airport (17 nm NW)
KCAK - Akron-Canton Regional Airport (19 nm W)
KAKR - Akron Fulton International Airport (20 nm W)
1G3 - Kent State University Airport (20 nm NW)
 
Loc | Ops | Rwys | IFR | FBO | Links
Com | Nav | Svcs | Stats | Notes
Area around 4G3 (Miller Airport)
 
Road maps at: MapQuest Bing Google
 
Aerial photo
WARNING: Photo may not be current or correct
Aerial photo of 4G3 (Miller Airport)
Photo by Bev Smith
Photo taken 10-Jun-2007
from a 172 at 1000 feet AGL

Do you have a better or more recent aerial photo of Miller Airport that you would like to share? If so, please send us your photo.

 
Sectional chart

 
Airport distance calculator
Flying to Miller Airport? Find the distance to fly.

From to 4G3

Sunrise and sunset
Times for 20-Apr-2019
 Local
(UTC-4)
 Zulu
(UTC)
Morning civil twilight06:1010:10
Sunrise06:3910:39
Sunset20:0800:08
Evening civil twilight20:3700:37

Current date and time
Zulu (UTC)  21-Apr-2019 01:15:37
Local (UTC-4)  20-Apr-2019 21:15:37
 
METAR
KPOV 
17nm NW 
210056Z AUTO 30008KT 10SM OVC095 08/05 A2971 RMK AO2 T00780050 PWINO
KCAK 
19nm W 
210051Z 30010KT 10SM SCT035 BKN050 09/06 A2972 RMK AO2 SLP069 T00940056
KAKR 
19nm W 
210054Z AUTO 29009KT 10SM FEW049 FEW075 OVC090 10/06 A2972 RMK AO2 SLP067 T01000061
KYNG 
23nm NE 
210051Z 35008KT 10SM FEW020 BKN160 10/07 A2971 RMK AO2 SLP062 T01000067
KUCP 
29nm E 
210056Z AUTO VRB06KT 9SM +RA OVC029 11/08 A2972 RMK AO2 RAB48 PRESRR SLP080 T01110083 PNO $
KBVI 
32nm SE 
202047Z 28008G17KT 10SM CLR 19/06 A2955 RMK LAST.
TAF
KCAK 
19nm W 
201736Z 2018/2118 22008KT P6SM OVC015 FM201900 23008KT P6SM VCSH BKN045 FM210000 29006KT P6SM VCSH BKN030 FM210300 29004KT P6SM BKN010 FM210800 25004KT P6SM OVC003
KYNG 
23nm NE 
201736Z 2018/2118 23010KT P6SM OVC015 FM202000 24008KT P6SM VCSH BKN050 FM202300 30006KT P6SM VCSH OVC030 FM210000 31005KT P6SM OVC040 TEMPO 2100/2102 4SM -SHRA OVC025 FM210200 29004KT P6SM VCSH OVC030 FM210600 VRB03KT P6SM OVC015
NOTAMs
Click for the latest NOTAMs
NOTAMs are issued by the DoD/FAA and will open in a separate window not controlled by AirNav.

 

 
 

Would you like to see your business listed on this page?

 If your business provides an interesting product or service to pilots, flight crews, aircraft, or users of the Miller Airport, you should consider listing it here.  To start the listing process, click on the button below
 
Add a business
 

Other Pages about Miller Airport

Update a link
 
Copyright © AirNav, LLC. All rights reserved. Privacy Policy  Contact